Flag for Greenland Weather past 2 weeks in Thule Air Base, Greenland

Now
18 °F

Light snow. Ice fog.


Feels Like: 18 °F
Forecast: 4 / 24 °F
Wind: No wind

Location: Thule A. B.

Current Time: Oct 23, 2014 at 3:46:48 AM

Latest Report: Oct 23, 2014 at 2:58 AM


Visibility: 4 mi

Pressure: 29.46 "Hg

Humidity: 93%

Dew point: 16 °F

Location of Thule Air BaseLocation

Historic Weather in Thule Air Base — Graph

°F

Thule Air Base temperature yesterday

Maximum temperature yesterday: 19 °F (at 8:58 PM)
Minimum temperature yesterday: 3 °F (at 10:58 AM)
Average temperature yesterday: 12 °F

Past Weeks' High & Low Weather Summary

 TemperatureHumidityPressure
High43 °F (Oct 11, 10:58 AM)93% (Oct 11, 1:58 PM)30.18 "Hg (Oct 11, 1:58 PM)
Low1 °F (Oct 19, 5:58 PM)49% (Oct 8, 7:58 AM)29.40 "Hg (Oct 22, 10:58 PM)
Average19 °F78%29.86 "Hg
* Reported Oct 8 2:58 AM — Oct 23 2:58 AM, Thule Air Base, Weather by CustomWeather, © 2014

Note: Actual official high and low records may vary slightly from our data, if they occured in-between our weather recording intervals... More about our weather records

Advertising

Thule Air Base weather history for previous 24 hours

 ConditionsComfort  
Time TempWeatherWind HumidityBarometerVisibility
2:58 AM
Oct 23
18 °FLight snow. Ice fog.No wind93%29.46 "Hg4 mi
2:04 AM19 °FLight snow. Partly cloudy.6 mph79%29.48 "HgN/A
1:58 AM19 °FPartly cloudy.6 mph79%29.44 "HgN/A
12:58 AM21 °FPassing clouds.15 mph80%29.43 "Hg6 mi
11:58 PM
Oct 22
19 °FPassing clouds.13 mph73%29.41 "HgN/A
10:58 PM19 °FPassing clouds.23 mph73%29.40 "HgN/A
9:58 PM19 °FPassing clouds.21 mph73%29.42 "HgN/A
8:58 PM19 °FPassing clouds.10 mph68%29.41 "HgN/A
7:58 PM18 °FPassing clouds.21 mph79%29.44 "HgN/A
6:58 PM18 °FOvercast.20 mph68%29.46 "HgN/A
5:58 PM18 °FScattered clouds.20 mph53%29.47 "HgN/A
4:58 PM16 °FSunny.16 mph57%29.49 "HgN/A
3:58 PM14 °FSunny.17 mph57%29.52 "HgN/A
2:58 PM10 °FSunny.16 mph67%29.52 "HgN/A
1:58 PM7 °FSunny.9 mph72%29.53 "HgN/A
12:58 PM3 °FPassing clouds.7 mph78%29.54 "HgN/A
11:58 AM5 °FPassing clouds.10 mph78%29.55 "HgN/A
10:58 AM3 °FPassing clouds.13 mph78%29.54 "HgN/A
9:58 AM5 °FPassing clouds.9 mph78%29.54 "HgN/A
8:58 AM5 °FClear.9 mph78%29.52 "HgN/A
7:59 AM10 °FOvercast.12 mph72%29.54 "HgN/A
7:58 AM9 °FMostly cloudy.12 mph78%29.51 "HgN/A
6:58 AM9 °FPassing clouds.8 mph78%29.49 "HgN/A
5:58 AM9 °FPassing clouds.10 mph85%29.48 "HgN/A
4:58 AM12 °FPassing clouds.10 mph73%29.46 "HgN/A
3:59 AM12 °FPassing clouds.10 mph79%29.49 "HgN/A
3:58 AM12 °FPassing clouds.12 mph78%29.45 "HgN/A
3:02 AM16 °FOvercast.13 mph79%29.48 "HgN/A
Weather by CustomWeather, © 2014

See weather overviewHow to use our weather pages